DEFOG EDFM-EDSB

Flight info

Callsign DEFOG
Flight time N/A
Altitude
Route
Aircraft DA62

Departure

Time 2026-04-23 13:55
Airport Mannheim-City Airport (EDFM)

Arrival

Time N/A
Airport Karlsruhe Baden-Baden Airport (EDSB)
Time Latitude Longitude Altitude Speed Heading
2026-04-23 13:49 49.47561 8.52029 312 ft 0 kts 182°
2026-04-23 13:50 49.47552 8.52029 312 ft 5 kts 176°
2026-04-23 13:51 49.47540 8.52066 312 ft 8 kts 92°
2026-04-23 13:51 49.47538 8.52127 313 ft 4 kts 93°
2026-04-23 13:51 49.47533 8.52168 313 ft 3 kts 144°
2026-04-23 13:51 49.47487 8.52168 313 ft 11 kts 182°
2026-04-23 13:52 49.47417 8.52163 314 ft 10 kts 182°
2026-04-23 13:52 49.47344 8.52156 313 ft 12 kts 184°
2026-04-23 13:52 49.47289 8.52152 311 ft 0 kts 183°
2026-04-23 13:53 49.47281 8.52151 311 ft 8 kts 183°
2026-04-23 13:53 49.47244 8.52117 311 ft 8 kts 276°
2026-04-23 13:54 49.47260 8.51748 307 ft 64 kts 272°
2026-04-23 13:54 49.47292 8.50882 374 ft 95 kts 274°
2026-04-23 13:54 49.47202 8.49881 681 ft 103 kts 235°
2026-04-23 13:54 49.46478 8.49448 837 ft 127 kts 182°
2026-04-23 13:55 49.45615 8.49179 1159 ft 129 kts 193°
2026-04-23 13:55 49.44697 8.48844 1372 ft 143 kts 195°
2026-04-23 13:55 49.43733 8.48551 1635 ft 149 kts 191°
2026-04-23 13:55 49.42674 8.48256 1754 ft 159 kts 191°
2026-04-23 13:56 49.41558 8.47932 1858 ft 167 kts 192°
2026-04-23 13:56 49.40417 8.47584 2002 ft 169 kts 192°
2026-04-23 13:56 49.39242 8.47303 2049 ft 173 kts 185°
2026-04-23 13:56 49.38004 8.47263 2026 ft 185 kts 180°
2026-04-23 13:57 49.36708 8.47276 2023 ft 186 kts 181°
2026-04-23 13:57 49.35423 8.47289 2118 ft 183 kts 179°
2026-04-23 13:57 49.34158 8.47333 2240 ft 180 kts 178°
2026-04-23 13:57 49.32899 8.47434 2329 ft 182 kts 176°
2026-04-23 13:58 49.31628 8.47573 2409 ft 184 kts 174°
2026-04-23 13:58 49.30359 8.47940 2431 ft 185 kts 166°
2026-04-23 13:58 49.29116 8.48428 2415 ft 187 kts 164°
2026-04-23 13:58 49.27869 8.48959 2484 ft 189 kts 164°
2026-04-23 13:59 49.26591 8.49333 2656 ft 184 kts 173°
2026-04-23 13:59 49.25310 8.49353 2713 ft 186 kts 186°
2026-04-23 13:59 49.24007 8.49128 2774 ft 190 kts 187°
2026-04-23 13:59 49.22685 8.48869 2685 ft 193 kts 188°
2026-04-23 14:00 49.21812 8.48685 2706 ft 191 kts 188°
2026-04-23 14:00 49.20046 8.48340 2663 ft 190 kts 187°
2026-04-23 14:00 49.18732 8.48093 2624 ft 192 kts 186°
2026-04-23 14:00 49.17410 8.47837 2621 ft 191 kts 187°
2026-04-23 14:01 49.16100 8.47499 2662 ft 190 kts 191°
2026-04-23 14:01 49.14796 8.47085 2718 ft 190 kts 195°
2026-04-23 14:01 49.13547 8.46405 2815 ft 190 kts 202°
2026-04-23 14:01 49.12322 8.45588 2762 ft 194 kts 206°
2026-04-23 14:02 49.11110 8.44713 2683 ft 197 kts 206°
2026-04-23 14:02 49.09870 8.43846 2624 ft 197 kts 205°
2026-04-23 14:02 49.08663 8.42962 2733 ft 177 kts 208°
2026-04-23 14:02 49.07635 8.42159 2602 ft 167 kts 209°
2026-04-23 14:03 49.06642 8.41325 2499 ft 159 kts 211°
2026-04-23 14:03 49.05728 8.40448 2348 ft 154 kts 216°
2026-04-23 14:03 49.04861 8.39489 2329 ft 156 kts 218°
2026-04-23 14:03 49.03955 8.38401 2311 ft 174 kts 221°
2026-04-23 14:04 49.03004 8.37168 2298 ft 182 kts 222°
2026-04-23 14:04 49.02049 8.35864 2273 ft 186 kts 225°
2026-04-23 14:04 49.01149 8.34414 2292 ft 189 kts 230°
2026-04-23 14:04 49.00720 8.33674 2343 ft 188 kts 231°
2026-04-23 14:05 49.00599 8.33464 2329 ft 188 kts 231°
2026-04-23 14:05 48.99742 8.31943 2343 ft 189 kts 231°
2026-04-23 14:06 48.98926 8.30437 2315 ft 175 kts 233°
2026-04-23 14:06 48.98233 8.29097 2080 ft 162 kts 230°
2026-04-23 14:06 48.97305 8.27889 1965 ft 184 kts 219°
2026-04-23 14:06 48.96308 8.26641 1997 ft 189 kts 220°
2026-04-23 14:07 48.95293 8.25367 2077 ft 191 kts 221°
2026-04-23 14:07 48.93238 8.22950 2157 ft 177 kts 216°
2026-04-23 14:07 48.92193 8.21836 2090 ft 188 kts 213°
2026-04-23 14:08 48.91067 8.20779 2017 ft 194 kts 208°
2026-04-23 14:08 48.89875 8.19785 2000 ft 195 kts 208°
2026-04-23 14:08 48.88790 8.18713 1945 ft 180 kts 216°
2026-04-23 14:08 48.87758 8.17612 1701 ft 179 kts 218°
2026-04-23 14:09 48.86733 8.16486 1529 ft 188 kts 217°
2026-04-23 14:09 48.85648 8.15434 1344 ft 168 kts 214°
2026-04-23 14:09 48.84698 8.14518 1170 ft 143 kts 218°
2026-04-23 14:09 48.83922 8.13728 1015 ft 136 kts 217°
2026-04-23 14:10 48.83053 8.12861 978 ft 160 kts 216°
2026-04-23 14:10 48.82028 8.11964 909 ft 176 kts 212°
2026-04-23 14:10 48.80979 8.10939 881 ft 181 kts 214°
2026-04-23 14:10 48.79946 8.09963 753 ft 161 kts 214°
2026-04-23 14:11 48.79126 8.09150 503 ft 135 kts 212°
2026-04-23 14:11 48.78261 8.08353 469 ft 154 kts 214°
2026-04-23 14:11 48.77329 8.07460 611 ft 157 kts 216°
2026-04-23 14:11 48.76555 8.06419 991 ft 144 kts 246°
2026-04-23 14:12 48.76685 8.05127 1240 ft 133 kts 319°
2026-04-23 14:12 48.77582 8.04973 1305 ft 147 kts 25°
2026-04-23 14:12 48.78219 8.06191 1428 ft 154 kts 67°
2026-04-23 14:12 48.78552 8.07732 1616 ft 153 kts 69°
2026-04-23 14:13 48.78886 8.09200 2016 ft 142 kts 63°
2026-04-23 14:13 48.79255 8.10622 2262 ft 147 kts 66°
2026-04-23 14:13 48.79589 8.12087 2624 ft 149 kts 70°
2026-04-23 14:13 48.79914 8.13580 2860 ft 151 kts 68°
2026-04-23 14:14 48.80202 8.15153 2948 ft 159 kts 72°
2026-04-23 14:14 48.80470 8.16788 3104 ft 155 kts 72°
2026-04-23 14:14 48.80731 8.18357 3327 ft 153 kts 72°
2026-04-23 14:14 48.81038 8.19929 3454 ft 160 kts 68°
2026-04-23 14:15 48.81523 8.21572 3255 ft 178 kts 63°
2026-04-23 14:15 48.82127 8.23271 3136 ft 184 kts 56°
2026-04-23 14:15 48.82773 8.24942 2984 ft 185 kts 54°
2026-04-23 14:15 48.83611 8.26377 2969 ft 183 kts 40°
2026-04-23 14:16 48.84632 8.27504 2988 ft 180 kts 34°
2026-04-23 14:16 48.85678 8.28537 2899 ft 179 kts 32°
2026-04-23 14:16 48.86733 8.29571 2855 ft 180 kts 32°
2026-04-23 14:16 48.87786 8.30568 2817 ft 180 kts 30°
2026-04-23 14:17 48.88135 8.30890 2840 ft 179 kts 32°
2026-04-23 14:21 48.88908 8.31625 2924 ft 177 kts 31°
2026-04-23 14:21 48.89962 8.32604 2900 ft 179 kts 31°
2026-04-23 14:22 48.91020 8.33576 2928 ft 175 kts 33°
2026-04-23 14:22 48.91998 8.34587 3126 ft 161 kts 36°
2026-04-23 14:22 48.93026 8.35660 2439 ft 195 kts 34°
2026-04-23 14:22 48.94147 8.36865 2279 ft 196 kts 34°
2026-04-23 14:23 48.95241 8.38038 2235 ft 187 kts 36°
2026-04-23 14:23 48.96268 8.39229 2168 ft 185 kts 37°
2026-04-23 14:23 48.97252 8.40421 2294 ft 176 kts 37°
2026-04-23 14:23 48.98196 8.41595 2379 ft 174 kts 36°
2026-04-23 14:24 48.98211 8.41613 2382 ft 174 kts 36°
2026-04-23 14:26 48.98350 8.41781 2407 ft 172 kts 36°
2026-04-23 14:26 48.99299 8.42838 2472 ft 169 kts 35°
2026-04-23 14:27 49.00295 8.43888 2308 ft 181 kts 34°
2026-04-23 14:27 49.01345 8.44967 2263 ft 180 kts 32°
2026-04-23 14:27 49.02380 8.46014 2256 ft 178 kts 32°
2026-04-23 14:27 49.03442 8.47020 2237 ft 180 kts 29°
2026-04-23 14:28 49.04526 8.47959 2150 ft 182 kts 33°
2026-04-23 14:28 49.05589 8.49007 2101 ft 181 kts 31°
2026-04-23 14:28 49.06628 8.50013 2187 ft 173 kts 30°
2026-04-23 14:28 49.07638 8.50961 2259 ft 168 kts 31°
2026-04-23 14:29 49.08641 8.51885 2344 ft 168 kts 30°
2026-04-23 14:29 49.09630 8.52800 2349 ft 174 kts 32°
2026-04-23 14:29 49.10674 8.53808 2336 ft 180 kts 30°
2026-04-23 14:29 49.11761 8.54687 2325 ft 179 kts 23°
2026-04-23 14:30 49.12924 8.55400 2267 ft 182 kts 21°
2026-04-23 14:30 49.14099 8.56107 2265 ft 180 kts 21°
2026-04-23 14:30 49.15256 8.56810 2269 ft 177 kts 21°
2026-04-23 14:30 49.16414 8.57448 2310 ft 177 kts 16°
2026-04-23 14:31 49.17634 8.57681 2295 ft 177 kts
2026-04-23 14:31 49.18886 8.57546 2201 ft 181 kts 355°
2026-04-23 14:31 49.20126 8.57359 2257 ft 176 kts 354°
2026-04-23 14:31 49.21328 8.57168 2334 ft 172 kts 354°
2026-04-23 14:32 49.22510 8.57006 2390 ft 169 kts 355°
2026-04-23 14:32 49.23678 8.56819 2467 ft 170 kts 354°
2026-04-23 14:32 49.24851 8.56496 2546 ft 172 kts 350°
2026-04-23 14:32 49.26024 8.56137 2505 ft 172 kts 348°
2026-04-23 14:33 49.27193 8.55669 2452 ft 174 kts 346°
2026-04-23 14:33 49.28376 8.55205 2393 ft 176 kts 346°
2026-04-23 14:33 49.29562 8.54778 2434 ft 174 kts 347°
2026-04-23 14:33 49.30746 8.54314 2389 ft 177 kts 346°
2026-04-23 14:34 49.31939 8.53819 2334 ft 178 kts 345°
2026-04-23 14:34 49.33145 8.53347 2346 ft 180 kts 348°
2026-04-23 14:34 49.34308 8.52932 2221 ft 163 kts 348°
2026-04-23 14:34 49.35384 8.52617 2113 ft 155 kts 353°
2026-04-23 14:35 49.36461 8.52407 2051 ft 157 kts 353°
2026-04-23 14:35 49.37550 8.52249 1949 ft 154 kts 358°
2026-04-23 14:35 49.38595 8.52234 1786 ft 151 kts 359°
2026-04-23 14:35 49.39694 8.52177 1737 ft 155 kts 358°
2026-04-23 14:36 49.40640 8.52139 1588 ft 122 kts 359°
2026-04-23 14:36 49.41449 8.52133 1475 ft 118 kts 359°
2026-04-23 14:36 49.42281 8.52135 1429 ft 121 kts
2026-04-23 14:36 49.43072 8.52186 1312 ft 110 kts
2026-04-23 14:37 49.43764 8.52541 1201 ft 110 kts 35°
2026-04-23 14:37 49.44146 8.53596 1236 ft 121 kts 79°
2026-04-23 14:37 49.44166 8.54926 1272 ft 127 kts 77°
2026-04-23 14:37 49.44548 8.56047 1152 ft 118 kts 39°
2026-04-23 14:38 49.45229 8.56614 1082 ft 111 kts 14°
2026-04-23 14:38 49.46017 8.56847 999 ft 120 kts
2026-04-23 14:38 49.46807 8.56552 920 ft 122 kts 320°
2026-04-23 14:38 49.47142 8.55546 736 ft 97 kts 272°
2026-04-23 14:39 49.47158 8.54501 625 ft 98 kts 278°
2026-04-23 14:39 49.47201 8.53504 530 ft 94 kts 276°
2026-04-23 14:39 49.47236 8.52552 391 ft 85 kts 276°
2026-04-23 14:39 49.47266 8.51709 307 ft 66 kts 273°
2026-04-23 14:40 49.47277 8.51252 308 ft 30 kts 274°
2026-04-23 14:40 49.47285 8.51011 313 ft 13 kts 270°
2026-04-23 14:40 49.47282 8.50963 314 ft 2 kts 230°
2026-04-23 14:40 49.47241 8.50970 313 ft 1 kts 128°
2026-04-23 14:41 49.47234 8.51015 312 ft 15 kts 92°
2026-04-23 14:42 49.47227 8.51210 309 ft 19 kts 94°
2026-04-23 14:42 49.47220 8.51402 311 ft 17 kts 92°
2026-04-23 14:42 49.47214 8.51598 309 ft 21 kts 92°
2026-04-23 14:42 49.47208 8.51806 310 ft 19 kts 92°
2026-04-23 14:43 49.47199 8.52004 312 ft 17 kts 91°
2026-04-23 14:43 49.47232 8.52136 310 ft 12 kts 30°
2026-04-23 14:43 49.47308 8.52153 312 ft 10 kts
2026-04-23 14:43 49.47398 8.52158 314 ft 14 kts
2026-04-23 14:44 49.47487 8.52166 313 ft 12 kts
2026-04-23 14:44 49.47560 8.52174 313 ft 9 kts
2026-04-23 14:44 49.47582 8.52119 313 ft 8 kts 250°
2026-04-23 14:44 49.47561 8.52111 313 ft 0 kts 183°